Weather History for KCZZ - May, 2012

Change the Weather History Date:

Friday, May 11, 2012

  Actual Average Record
Temperature  
Mean Temperature 56 °F 60 °F  
Max Temperature 77 °F 79 °F 96 °F (1996)
Min Temperature 34 °F 42 °F 30 °F (2002)
Degree Days  
Heating Degree Days 9 6  
Month to date heating degree days 86 70  
Since 1 July heating degree days 3195 2838  
Cooling Degree Days 0 1  
Month to date cooling degree days 1 6  
Year to date cooling degree days 7 9  
Growing Degree Days 6 (Base 50)    
Moisture  
Dew Point 32 °F    
Average Humidity 48    
Maximum Humidity 85    
Minimum Humidity 11    
Precipitation  
Precipitation 0.00 in 0.00 in 1.05 in (1957)
Month to date precipitation 0.00 0.11  
Year to date precipitation 6.05 9.97  
Since 1 July precipitation 11.29  
Snow  
Snow 0.00 in - - ()
Month to date snowfall 0.0  
Year to date snowfall 0.0  
Since 1 July snowfall 0.0  
Snow Depth 0.00 in    
Sea Level Pressure  
Sea Level Pressure 29.88 in    
Wind  
Wind Speed 9 mph (SE)    
Max Wind Speed 17 mph    
Max Gust Speed 24 mph    
T = Trace of Precipitation, MM = Missing Value Source: NWS Daily Summary

Daily Weather History Graph

Daily Weather History Graph

Search for Another Location

Airport or City:

Trip Planner

Search our weather history database for the weather conditions in past years. The results will help you decide how hot, cold, wet, or windy it might be!

Date:

Astronomy

May. 11, 2012 Rise Set
Actual Time 5:49 AM PDT 7:35 PM PDT
Civil Twilight 5:22 AM PDT 8:02 PM PDT
Nautical Twilight 4:50 AM PDT 8:34 PM PDT
Astronomical Twilight 4:16 AM PDT 9:08 PM PDT
Moon 12:19 AM PDT (5/11) 11:23 AM PDT (5/11)
Length of Visible Light 14h 39m
Length of Day
13h 45m
Waning Gibbous, 62% of the Moon is Illuminated
May 11
Waning Gibbous
May 12
Last Quarter
May 20
New
May 28
First Quarter
Jun 4
Full

Hourly Weather History & Observations

Time (PDT) Temp. Windchill Dew Point Humidity Pressure Visibility Wind Dir Wind Speed Gust Speed Precip Events Conditions
12:52 AM 39.9 °F 34.5 °F 35.1 °F 83% 29.85 in - ENE 8.1 mph - N/A   Unknown
1:52 AM 39.9 °F 35.8 °F 32.0 °F 73% 29.83 in - NE 5.8 mph - N/A   Unknown
2:52 AM 36.0 °F 30.3 °F 30.0 °F 79% 29.83 in - ENE 6.9 mph - N/A   Unknown
3:52 AM 37.9 °F 33.5 °F 28.9 °F 70% 29.83 in - NE 5.8 mph - N/A   Unknown
4:52 AM 39.9 °F 35.8 °F 28.0 °F 63% 29.83 in - NE 5.8 mph - N/A   Unknown
5:52 AM 37.0 °F 31.6 °F 27.0 °F 67% 29.85 in - NE 6.9 mph - N/A   Unknown
6:52 AM 45.0 °F 42.6 °F 28.0 °F 52% 29.86 in - NE 4.6 mph - N/A   Unknown
7:52 AM 57.9 °F - 30.9 °F 36% 29.86 in - ENE 4.6 mph - N/A   Unknown
8:52 AM 68.0 °F - 24.1 °F 19% 29.86 in - Calm Calm - N/A   Unknown
9:52 AM 71.1 °F - 26.1 °F 19% 29.87 in - SW 10.4 mph - N/A   Unknown
10:52 AM 73.0 °F - 24.1 °F 16% 29.87 in - SSW 11.5 mph - N/A   Unknown
11:52 AM 73.9 °F - 25.0 °F 16% 29.88 in - SSW 12.7 mph - N/A   Unknown
12:52 PM 75.9 °F - 19.0 °F 12% 29.88 in - SW 13.8 mph - N/A   Unknown
1:52 PM 77.0 °F - 21.9 °F 13% 29.87 in - WSW 16.1 mph 21.9 mph N/A   Unknown
2:52 PM 75.9 °F - 17.1 °F 11% 29.88 in - WSW 12.7 mph - N/A   Unknown
3:52 PM 73.9 °F - 37.0 °F 26% 29.88 in - SSW 15.0 mph - N/A   Unknown
4:52 PM 72.0 °F - 30.0 °F 21% 29.88 in - SSW 12.7 mph - N/A   Unknown
5:52 PM 69.1 °F - 44.1 °F 40% 29.89 in - SW 12.7 mph - N/A   Unknown
6:52 PM 64.0 °F - 46.9 °F 54% 29.90 in - SW 12.7 mph - N/A   Unknown
7:52 PM 57.9 °F - 46.9 °F 67% 29.91 in - SSW 6.9 mph - N/A   Unknown
8:52 PM 53.1 °F - 45.0 °F 74% 29.91 in - Calm Calm - N/A   Unknown
9:52 PM 48.9 °F - 43.0 °F 80% 29.94 in - NNE 3.5 mph - N/A   Unknown
10:52 PM 46.0 °F 43.1 °F 41.0 °F 83% 29.96 in - NE 5.8 mph - N/A   Unknown
11:52 PM 45.0 °F 41.8 °F 39.9 °F 82% 29.95 in - ENE 5.8 mph - N/A   Unknown